Weather in Kirshino

Russia / Pskov Oblast     58°00′46″N   27°43′41″E
temp.,
°C
wind,
m/s
gust,
m/s
humid.,
%
clouds,
%
prec.,
mm/h
press.,
hPa
HPBL,
m
9 march, tue
tue900:00−11nw33914 0.0 101852
03:00−11nw239429 0.0 101935
06:00−11wnw229694 0.0 102041
09:00−11sw119195 0.1 102042
12:00−7sse2378100 0.0 1020279
15:00−6se4592100 0.3 1020331
18:00−5se5795100 1.6 1019381
21:00−6ese6896100 4.9 1020251
10 march, wed
wed1000:00−8e71194100 2.3 1020434
03:00−10e71194100 4.1 1021442
06:00−11e71192100 1.3 1022481
09:00−12e71189100 1.6 1024466
12:00−11ese71181100 0.1 1025528
15:00−8ese61074100 0.1 1025690
18:00−9ese5107797 0.0 1025350
21:00−10ese7138398 0.0 1026481
11 march, thu
thu1100:00−10se7119398 0.3 1026462
03:00−11se6109399 0.7 1026379
06:00−11se61092100 0.4 1025319
09:00−11sse51094100 0.4 1024254
12:00−6sse698987 0.0 1023390
15:00−2sse698169 0.0 1022603
18:00−3sse5108090 0.0 1019328
21:00−5sse6138245 0.0 1018323
12 march, fri
fri1200:00−5sse71481100 0.0 1016423
03:00−5sse81581100 0.0 1013526
06:00−5sse91778100 0.0 1011613
09:00−4sse101879100 0.0 1008811
12:00−2sse101683100 0.0 10071032
15:00−1s91589100 0.4 10051132
18:00−2s81393100 1.1 1004765
21:00−2s61296100 2.4 1003492
13 march, sat
sat1300:00−1s5995100 0.3 1003274
03:00+1ssw4989100 0.4 1003306
06:00+1sw51196100 0.1 1003430
09:00+2ssw51190100 0.3 1003382
12:00+1ssw51192100 0.1 1004476
15:00+2ssw51097100 0.2 1003381
18:00+1s3899100 1.3 1002275
21:00+1sw5998100 2.4 1001338